{"data":{"norad_id":60277,"intl_designator":"2024-131Y","name":"STARLINK-32135","alt_names":[],"object_type":"PAYLOAD","status":"ACTIVE","operator":null,"country":"US","launch_date":"2024-07-27","launch_site_code":"AFETR","launch_vehicle":null,"mission":null,"orbit_class":"UNKNOWN","rcs_meters":null,"size_class":null,"mass_kg":null,"dimensions":null,"purposes":["comms"],"wikipedia_slug":null,"has_3d_model":false,"image_url":null,"decayed_at":null,"tle_current":{"epoch":"2026-05-25T04:42:04.013856Z","epoch_age_seconds":68848,"freshness":"FRESH","line1":"1 60277U 24131Y   26145.19587979  .00000400  00000+0  25618-4 0  9995","line2":"2 60277  53.1599  56.9481 0001077 102.5422 257.5700 15.30192842103432","mean_motion":15.30192842,"eccentricity":0.0001077,"inclination_deg":53.1599,"raan_deg":56.9481,"arg_perigee_deg":102.5422,"mean_anomaly_deg":257.57,"bstar":2.5618e-5,"rev_number":10343,"period_min":94.105785916361,"perigee_km":474.4983336807,"apogee_km":475.9745503201,"semimajor_km":6853.3734420004,"source":"CELESTRAK","updated_at":"2026-05-25T13:38:19.203212Z"}}}